SCP
0 0 0 0 0 1 2 2 2 3 4 3 3 4 4 4 4 5 5 5 4 2
0 0 0 0 1 1 2 1 2 2 3 4 4 4 4 4 5 5 5 5 4 2
0 0 0 0 1 1 2 2 3 2 3 5 4 4 4 6 5 5 5 4 3 2
0 0 0 0 1 1 1 1 1 2 2 3 4 4 4 6 4 4 4 3 2 1
0 0 0 0 1 1 1 1 1 2 2 2 3 4 4 4 4 3 3 2 1 1
0 0 0 0 1 1 1 1 1 1 2 3 4 4 4 3 3 2 2 1 1 1
0 0 0 0 1 1 1 1 1 1 2 3 3 3 3 3 2 2 2 1 1 1
0 0 0 0 1 1 1 1 1 2 2 3 2 3 3 3 3 2 2 1 1 1
0 0 0 0 1 1 1 1 1 3 2 2 2 2 3 3 3 2 2 1 0 1
0 0 0 1 1 0 2 3 3 3 3 3 3 1 2 2 3 2 1 1 0 0
-0 -0 0 1 0 1 3 4 5 5 4 3 3 0 0 1 2 1 1 0 0 0
0 0 0 1 0 2 3 4 5 3 3 4 1 0 0 1 1 1 0 0 0 0
0 0 1 1 2 3 3 4 4 4 3 2 1 0 0 0 1 0 0 0 0 0
0 1 1 2 3 3 4 4 4 4 4 2 1 0 0 0 0 0 0 0 0 0
Wind_Speed_500mb
54 55 60 63 66 69 66 65 69 65 58 63 75 72 62 53 51 49 46 45 38 33
52 55 62 68 71 60 64 53 54 54 54 67 71 63 57 49 51 46 42 42 38 38
50 50 52 62 73 76 64 56 57 51 54 62 63 60 58 48 45 42 37 36 40 37
52 52 52 56 64 74 72 61 56 55 55 60 59 60 57 49 41 40 39 41 41 37
56 56 56 58 61 69 66 58 57 56 56 59 59 60 55 50 43 43 43 46 46 35
60 60 63 65 62 65 59 57 58 60 62 62 62 58 52 46 44 45 42 43 39 33
64 63 63 64 60 62 61 59 62 65 66 64 60 56 51 48 47 43 43 41 36 34
62 64 65 69 60 64 63 62 62 65 66 62 60 56 54 52 48 47 44 40 34 33
62 63 66 70 60 63 64 64 63 71 68 64 58 60 63 55 51 50 44 37 34 34
61 67 69 64 60 64 69 72 75 73 67 63 59 64 61 58 52 48 40 36 37 34
78 67 63 55 63 68 73 80 78 74 68 63 65 61 63 60 46 42 39 38 40 38
69 55 53 58 66 72 73 74 71 66 68 71 65 70 73 64 47 38 34 36 38 34
61 50 59 66 70 73 75 76 68 71 68 70 71 83 67 58 48 42 36 34 34 35
60 61 72 79 73 73 76 77 78 76 69 65 81 74 69 55 43 43 39 33 28 30
Wind_Direction_500mb
282 273 267 262 258 260 262 257 258 253 236 230 228 227 226 226 222 227 227 224 223 228
285 280 268 259 254 254 259 247 246 240 231 228 222 222 221 210 223 221 223 219 219 217
279 278 274 265 253 248 245 248 228 232 232 222 216 215 215 209 214 214 213 211 211 216
280 276 274 268 260 249 246 242 231 223 222 216 208 210 209 210 204 206 201 202 206 212
278 273 275 267 262 249 242 238 225 218 209 203 205 207 207 205 200 197 198 207 212 209
278 274 271 270 260 249 240 232 220 213 205 198 202 201 200 195 196 194 201 199 199 204
274 272 269 269 261 249 232 225 216 208 202 196 194 193 188 191 191 192 193 195 195 203
273 274 270 268 256 241 225 218 211 200 195 190 188 188 187 187 187 185 189 192 197 204
274 275 267 265 247 229 217 208 198 193 189 185 186 193 189 185 183 185 185 189 194 203
281 278 261 250 233 216 208 198 191 188 184 183 181 197 195 193 180 182 186 187 187 193
293 269 250 234 218 206 199 191 186 183 181 178 190 189 182 183 179 181 189 190 190 191
284 266 235 218 204 198 190 184 183 180 178 179 185 176 178 178 178 180 181 186 196 194
280 241 223 198 192 185 181 178 174 174 172 185 174 173 176 169 172 173 176 182 188 190
258 230 197 188 183 173 170 170 166 167 174 173 171 166 171 173 174 179 178 187 186 199
Wind_Speed_850mb
54 55 60 63 66 69 66 65 69 65 58 63 75 72 62 53 51 49 46 45 38 33
52 55 62 68 71 60 64 53 54 54 54 67 71 63 57 49 51 46 42 42 38 38
50 50 52 62 73 76 64 56 57 51 54 62 63 60 58 48 45 42 37 36 40 37
52 52 52 56 64 74 72 61 56 55 55 60 59 60 57 49 41 40 39 41 41 37
56 56 56 58 61 69 66 58 57 56 56 59 59 60 55 50 43 43 43 46 46 35
60 60 63 65 62 65 59 57 58 60 62 62 62 58 52 46 44 45 42 43 39 33
64 63 63 64 60 62 61 59 62 65 66 64 60 56 51 48 47 43 43 41 36 34
62 64 65 69 60 64 63 62 62 65 66 62 60 56 54 52 48 47 44 40 34 33
62 63 66 70 60 63 64 64 63 71 68 64 58 60 63 55 51 50 44 37 34 34
61 67 69 64 60 64 69 72 75 73 67 63 59 64 61 58 52 48 40 36 37 34
78 67 63 55 63 68 73 80 78 74 68 63 65 61 63 60 46 42 39 38 40 38
69 55 53 58 66 72 73 74 71 66 68 71 65 70 73 64 47 38 34 36 38 34
61 50 59 66 70 73 75 76 68 71 68 70 71 83 67 58 48 42 36 34 34 35
60 61 72 79 73 73 76 77 78 76 69 65 81 74 69 55 43 43 39 33 28 30
Wind_Direction_850mb
282 273 267 262 258 260 262 257 258 253 236 230 228 227 226 226 222 227 227 224 223 228
285 280 268 259 254 254 259 247 246 240 231 228 222 222 221 210 223 221 223 219 219 217
279 278 274 265 253 248 245 248 228 232 232 222 216 215 215 209 214 214 213 211 211 216
280 276 274 268 260 249 246 242 231 223 222 216 208 210 209 210 204 206 201 202 206 212
278 273 275 267 262 249 242 238 225 218 209 203 205 207 207 205 200 197 198 207 212 209
278 274 271 270 260 249 240 232 220 213 205 198 202 201 200 195 196 194 201 199 199 204
274 272 269 269 261 249 232 225 216 208 202 196 194 193 188 191 191 192 193 195 195 203
273 274 270 268 256 241 225 218 211 200 195 190 188 188 187 187 187 185 189 192 197 204
274 275 267 265 247 229 217 208 198 193 189 185 186 193 189 185 183 185 185 189 194 203
281 278 261 250 233 216 208 198 191 188 184 183 181 197 195 193 180 182 186 187 187 193
293 269 250 234 218 206 199 191 186 183 181 178 190 189 182 183 179 181 189 190 190 191
284 266 235 218 204 198 190 184 183 180 178 179 185 176 178 178 178 180 181 186 196 194
280 241 223 198 192 185 181 178 174 174 172 185 174 173 176 169 172 173 176 182 188 190
258 230 197 188 183 173 170 170 166 167 174 173 171 166 171 173 174 179 178 187 186 199